Flag for U.S.A. Weather past 2 weeks in Hollywood, Florida, U.S.A.

74 °F

Light rain. Partly sunny.

Feels Like: 71 °F
Forecast: 74 / 80 °F
Wind: 7 mph from East

Location: Fort Lauderdale / Hollywood International Airport

Current Time: Nov 30, 2015 at 9:29:59 AM

Latest Report: Nov 30, 2015 at 8:53 AM

Visibility: 7 mi

Pressure: 30.03 "Hg

Humidity: 94%

Dew point: 72 °F

Location of HollywoodLocation

Historic Weather in Hollywood — Graph


Hollywood temperature yesterday

Maximum temperature yesterday: 81 °F (at 11:53 AM)
Minimum temperature yesterday: 66 °F (at 5:53 AM)
Average temperature yesterday: 75 °F

Past Weeks' High & Low Weather Summary

High86 °F (Nov 20, 12:53 PM)100% (Nov 16, 10:58 PM)30.29 "Hg (Nov 16, 10:58 PM)
Low62 °F (Nov 24, 2:53 AM)48% (Nov 24, 11:53 AM)29.78 "Hg (Nov 22, 2:53 PM)
Average77 °F75%30.05 "Hg
* Reported Nov 15 7:53 AM — Nov 30 7:53 AM, Hollywood, Weather by CustomWeather, © 2015

Note: Actual official high and low records may vary slightly from our data, if they occured in-between our weather recording intervals... More about our weather records


Hollywood weather history for previous 24 hours

Time TempWeatherWind HumidityBarometerVisibility
7:53 AM
Mon, Nov 30
75 °FBroken clouds.9 mph90%30.01 "Hg10 mi
6:53 AM74 °FCloudy.7 mph91%30.00 "Hg10 mi
5:53 AM77 °FMostly cloudy.9 mph79%29.97 "Hg10 mi
4:53 AM75 °FMostly cloudy.8 mph85%29.96 "Hg10 mi
3:53 AM76 °FPassing clouds.10 mph80%29.96 "Hg10 mi
2:53 AM76 °FPassing clouds.12 mph77%29.96 "Hg10 mi
1:53 AM76 °FPassing clouds.9 mph77%29.98 "Hg10 mi
12:53 AM76 °FPassing clouds.10 mph77%29.99 "Hg10 mi
11:53 PM
Sun, Nov 29
76 °FPassing clouds.9 mph77%29.99 "Hg10 mi
10:53 PM76 °FPassing clouds.15 mph77%30.01 "Hg10 mi
9:53 PM76 °FPassing clouds.14 mph77%30.01 "Hg10 mi
8:53 PM77 °FPassing clouds.12 mph74%30.01 "Hg10 mi
7:53 PM77 °FPartly cloudy.13 mph74%30.01 "Hg10 mi
6:53 PM77 °FPassing clouds.10 mph71%30.00 "Hg10 mi
5:53 PM77 °FPassing clouds.9 mph71%29.99 "Hg10 mi
4:53 PM78 °FScattered clouds.14 mph66%29.98 "Hg10 mi
3:53 PM78 °FScattered clouds.14 mph64%29.98 "Hg10 mi
2:53 PM80 °FPassing clouds.15 mph62%29.98 "Hg10 mi
1:53 PM81 °FScattered clouds.13 mph60%29.99 "Hg10 mi
12:53 PM81 °FScattered clouds.16 mph60%30.02 "Hg10 mi
11:53 AM81 °FScattered clouds.15 mph60%30.04 "Hg10 mi
10:53 AM80 °FScattered clouds.15 mph60%30.07 "Hg10 mi
9:53 AM79 °FPassing clouds.17 mph60%30.07 "Hg10 mi
Weather by CustomWeather, © 2015

See weather overviewHow to use our weather pages